Weather History for Tampa Knight Airport, FL

Change the Weather History Date:

Wednesday, July 17, 2013

  Actual Average (KTPA) Record (KTPA)
Temperature  
Mean Temperature 79 °F 83 °F  
Max Temperature 89 °F 90 °F 96 °F (2002)
Min Temperature 69 °F 76 °F 68 °F (1968)
Degree Days  
Heating Degree Days 0 0  
Month to date heating degree days 0  
Since 1 June heating degree days 0  
Since 1 July heating degree days 0  
Cooling Degree Days 14 18  
Month to date cooling degree days 306  
Year to date cooling degree days 1699  
Since 1 June cooling degree days 822  
Growing Degree Days 29 (Base 50)    
Moisture  
Dew Point 71 °F    
Average Humidity 83    
Maximum Humidity 100    
Minimum Humidity 52    
Precipitation  
Precipitation 0.91 in 0.20 in 1.94 in (2014)
Month to date precipitation 3.97  
Year to date precipitation 22.85  
Sea Level Pressure  
Sea Level Pressure 30.13 in    
Wind  
Wind Speed 8 mph (ENE)    
Max Wind Speed 24 mph    
Max Gust Speed 46 mph    
Visibility 10 miles    
Events Rain    
T = Trace of Precipitation, MM = Missing Value Source: NWS Daily Summary

Daily Weather History Graph

Daily Weather History Graph

Search for Another Location

Airport:

Trip Planner

Search our weather history database for the weather conditions in past years. The results will help you decide how hot, cold, wet, or windy it might be!

Date:

Astronomy

Jul. 17, 2013 Rise Set
Actual Time 6:44 AM EDT 8:27 PM EDT
Civil Twilight 6:18 AM EDT 8:53 PM EDT
Nautical Twilight 5:47 AM EDT 9:24 PM EDT
Astronomical Twilight 5:14 AM EDT 9:57 PM EDT
Moon 3:21 PM EDT (7/17) 1:41 AM EDT (7/17)
Length of Visible Light 14h 34m
Length of Day
13h 42m
Waxing Gibbous, 67% of the Moon is Illuminated
Jul 17
Waxing Gibbous
Jul 22
Full
Jul 29
Last Quarter
Aug 6
New
Aug 14
First Quarter

Hourly Weather History & Observations

Time (EDT) Temp. Heat Index Dew Point Humidity Pressure Visibility Wind Dir Wind Speed Gust Speed Precip Events Conditions
12:15 AM 73.4 °F - 69.8 °F 88% 30.16 in 10.0 mi ENE 9.2 mph - N/A   Clear
12:35 AM 73.4 °F - 69.8 °F 88% 30.17 in 10.0 mi ENE 8.1 mph - N/A   Clear
12:55 AM 73.4 °F - 69.8 °F 88% 30.16 in 10.0 mi ENE 9.2 mph - N/A   Clear
1:15 AM 73.4 °F - 71.6 °F 94% 30.15 in 10.0 mi ENE 9.2 mph - N/A   Clear
1:35 AM 73.4 °F - 71.6 °F 94% 30.15 in 10.0 mi NE 9.2 mph - N/A   Clear
1:55 AM 73.4 °F - 71.6 °F 94% 30.14 in 10.0 mi ENE 9.2 mph - N/A   Clear
2:15 AM 73.4 °F - 71.6 °F 94% 30.14 in 10.0 mi ENE 9.2 mph - N/A   Clear
2:35 AM 73.4 °F - 71.6 °F 94% 30.14 in 10.0 mi NE 6.9 mph - N/A   Clear
2:55 AM 73.4 °F - 71.6 °F 94% 30.13 in 10.0 mi ENE 9.2 mph - N/A   Clear
3:15 AM 73.4 °F - 71.6 °F 94% 30.13 in 10.0 mi NE 6.9 mph - N/A   Clear
3:35 AM 73.4 °F - 71.6 °F 94% 30.13 in 10.0 mi NE 8.1 mph - N/A   Clear
3:55 AM 73.4 °F - 71.6 °F 94% 30.13 in 10.0 mi ENE 8.1 mph - N/A   Clear
4:15 AM 73.4 °F - 71.6 °F 94% 30.12 in 10.0 mi NE 9.2 mph - N/A   Clear
4:35 AM 73.4 °F - 69.8 °F 88% 30.11 in 10.0 mi NE 8.1 mph - N/A   Clear
4:55 AM 73.4 °F - 71.6 °F 94% 30.11 in 10.0 mi ENE 6.9 mph - N/A   Clear
5:15 AM 73.4 °F - 71.6 °F 94% 30.12 in 10.0 mi NE 8.1 mph - N/A   Clear
5:35 AM 73.4 °F - 69.8 °F 88% 30.13 in 10.0 mi NE 6.9 mph - N/A   Clear
5:55 AM 73.4 °F - 71.6 °F 94% 30.13 in 10.0 mi ENE 8.1 mph - N/A   Clear
6:15 AM 73.4 °F - 71.6 °F 94% 30.13 in 10.0 mi ENE 6.9 mph - N/A   Clear
6:35 AM 73.4 °F - 71.6 °F 94% 30.13 in 10.0 mi NE 8.1 mph - N/A   Clear
6:55 AM 73.4 °F - 71.6 °F 94% 30.13 in 10.0 mi NE 9.2 mph - N/A   Clear
7:15 AM 73.4 °F - 71.6 °F 94% 30.14 in 10.0 mi NE 9.2 mph - N/A   Clear
7:35 AM 73.4 °F - 71.6 °F 94% 30.14 in 10.0 mi ENE 10.4 mph - N/A   Clear
7:55 AM 75.2 °F - 71.6 °F 89% 30.15 in 10.0 mi ENE 11.5 mph - N/A   Clear
8:15 AM 75.2 °F - 71.6 °F 89% 30.17 in 10.0 mi ENE 10.4 mph - N/A   Clear
8:35 AM 77.0 °F - 71.6 °F 83% 30.17 in 10.0 mi ENE 9.2 mph - N/A   Clear
8:55 AM 77.0 °F - 71.6 °F 83% 30.17 in 10.0 mi ENE 10.4 mph - N/A   Clear
9:15 AM 78.8 °F - 73.4 °F 83% 30.17 in 10.0 mi ENE 9.2 mph - N/A   Clear
9:35 AM 80.6 °F 85.4 °F 73.4 °F 79% 30.16 in 10.0 mi East 11.5 mph - N/A   Scattered Clouds
9:55 AM 80.6 °F 85.4 °F 73.4 °F 79% 30.16 in 10.0 mi ENE 9.2 mph - N/A   Scattered Clouds
10:15 AM 82.4 °F 88.2 °F 73.4 °F 74% 30.15 in 10.0 mi ENE 10.4 mph 18.4 mph N/A   Mostly Cloudy
10:35 AM 84.2 °F 89.6 °F 71.6 °F 66% 30.15 in 10.0 mi East 10.4 mph - N/A   Scattered Clouds
10:55 AM 84.2 °F 89.6 °F 71.6 °F 66% 30.15 in 10.0 mi East 11.5 mph 17.3 mph N/A   Scattered Clouds
11:15 AM 86.0 °F 91.8 °F 71.6 °F 62% 30.14 in 10.0 mi East 12.7 mph 19.6 mph N/A   Scattered Clouds
11:35 AM 86.0 °F 91.8 °F 71.6 °F 62% 30.15 in 10.0 mi East 11.5 mph 19.6 mph N/A   Scattered Clouds
11:55 AM 86.0 °F 91.8 °F 71.6 °F 62% 30.14 in 10.0 mi East 10.4 mph - N/A   Scattered Clouds
12:15 PM 87.8 °F 93.8 °F 71.6 °F 58% 30.14 in 10.0 mi East 10.4 mph - N/A   Scattered Clouds
12:35 PM 86.0 °F 90.4 °F 69.8 °F 58% 30.14 in 10.0 mi East 10.4 mph 16.1 mph N/A   Mostly Cloudy
12:55 PM 87.8 °F 92.6 °F 69.8 °F 55% 30.14 in 10.0 mi East 9.2 mph - N/A   Scattered Clouds
1:15 PM 89.6 °F 94.7 °F 69.8 °F 52% 30.13 in 10.0 mi ENE 13.8 mph - N/A   Scattered Clouds
1:35 PM 89.6 °F 94.7 °F 69.8 °F 52% 30.12 in 10.0 mi East 6.9 mph - N/A   Mostly Cloudy
1:55 PM 87.8 °F 92.6 °F 69.8 °F 55% 30.12 in 10.0 mi East 9.2 mph - N/A   Mostly Cloudy
2:15 PM 87.8 °F 92.6 °F 69.8 °F 55% 30.11 in 10.0 mi East 11.5 mph 16.1 mph N/A   Scattered Clouds
2:35 PM 89.6 °F 94.7 °F 69.8 °F 52% 30.10 in 10.0 mi East 5.8 mph - N/A   Clear
2:55 PM 89.6 °F 94.7 °F 69.8 °F 52% 30.10 in 10.0 mi ENE 6.9 mph - N/A   Scattered Clouds
3:15 PM 86.0 °F 90.4 °F 69.8 °F 58% 30.09 in 10.0 mi ENE 11.5 mph - N/A   Mostly Cloudy
3:35 PM 73.4 °F - 68.0 °F 83% 30.09 in 0.5 mi NW 3.5 mph 26.5 mph 0.62 in Rain Light Rain
3:55 PM 80.6 °F 84.6 °F 71.6 °F 74% 30.10 in 10.0 mi South 4.6 mph - 0.62 in   Mostly Cloudy
4:15 PM 78.8 °F - 71.6 °F 78% 30.11 in 10.0 mi ENE 3.5 mph - N/A   Mostly Cloudy
4:35 PM 71.6 °F - 66.2 °F 83% 30.12 in 1.0 mi NE 24.2 mph 46.0 mph 0.25 in Rain Heavy Rain
4:55 PM 69.8 °F - 68.0 °F 94% 30.11 in 7.0 mi East 10.4 mph - 0.28 in Rain Light Rain
5:15 PM 71.6 °F - 69.8 °F 94% 30.12 in 10.0 mi Calm Calm - N/A   Mostly Cloudy
5:35 PM 71.6 °F - 69.8 °F 94% 30.11 in 10.0 mi ENE 3.5 mph - N/A Rain Light Rain
5:55 PM 71.6 °F - 71.6 °F 100% 30.11 in 10.0 mi ENE 4.6 mph - 0.01 in Rain Light Rain
6:15 PM 73.4 °F - 71.6 °F 94% 30.10 in 10.0 mi NE 3.5 mph - N/A Rain Light Rain
6:35 PM 73.4 °F - 71.6 °F 94% 30.09 in 10.0 mi ENE 4.6 mph - N/A Rain Light Rain
6:55 PM 73.4 °F - 69.8 °F 88% 30.08 in 10.0 mi East 5.8 mph - N/A   Scattered Clouds
7:15 PM 73.4 °F - 69.8 °F 88% 30.08 in 10.0 mi East 5.8 mph - N/A   Clear
7:35 PM 73.4 °F - 69.8 °F 88% 30.09 in 10.0 mi East 5.8 mph - N/A   Clear
7:55 PM 73.4 °F - 69.8 °F 88% 30.10 in 10.0 mi East 3.5 mph - N/A   Clear
8:15 PM 75.2 °F - 71.6 °F 89% 30.11 in 10.0 mi East 4.6 mph - N/A   Clear
8:35 PM 75.2 °F - 71.6 °F 89% 30.10 in 10.0 mi NE 4.6 mph - N/A   Clear
8:55 PM 75.2 °F - 71.6 °F 89% 30.11 in 10.0 mi ENE 4.6 mph - N/A   Clear
9:15 PM 73.4 °F - 71.6 °F 94% 30.11 in 10.0 mi NE 5.8 mph - N/A   Clear
9:35 PM 73.4 °F - 71.6 °F 94% 30.12 in 10.0 mi ENE 4.6 mph - N/A   Clear
9:55 PM 73.4 °F - 71.6 °F 94% 30.12 in 10.0 mi NNE 4.6 mph - N/A   Clear
10:15 PM 73.4 °F - 71.6 °F 94% 30.12 in 10.0 mi NE 4.6 mph - N/A   Clear
10:35 PM 73.4 °F - 71.6 °F 94% 30.13 in 10.0 mi ENE 3.5 mph - N/A   Scattered Clouds
10:55 PM 73.4 °F - 71.6 °F 94% 30.13 in 10.0 mi East 8.1 mph - N/A   Scattered Clouds
11:15 PM 73.4 °F - 71.6 °F 94% 30.13 in 10.0 mi East 6.9 mph - N/A   Clear
11:35 PM 73.4 °F - 69.8 °F 88% 30.13 in 10.0 mi East 6.9 mph - N/A   Clear
11:55 PM 73.4 °F - 69.8 °F 88% 30.13 in 10.0 mi East 5.8 mph - N/A   Clear